sat.trackr.live / text

‹ back to catalog

STARLINK-31049

NORAD 58543 · 2023-192N

PAYLOAD ACTIVE UNKNOWN

§ Identity

Operator
Country
US
Launch date
2023-12-08
Launch site
AFWTR
Launch vehicle
Mass (kg)
RCS (m²)

Purposes: comms

External: N2YO · Heavens-Above · Gunter

§ Orbital elements

Epoch: 2026-09-20T15:27:11.465280Z

Period
93.85 min
Inclination
53.1585°
Eccentricity
0.0001737
Mean motion
15.34389459 rev/d
Perigee alt
461.5 km
Apogee alt
463.9 km
Semi-major
6,840.9 km
B*
5.9637e-6
RAAN
232.9517°
Arg perigee
74.4030°
Mean anomaly
285.7164°
Rev number
15,589

§ Raw data

STARLINK-310491 58543U 23192N   26263.64388270 -.00000175  00000+0  59637-5 0  99972 58543  53.1585 232.9517 0001737  74.4030 285.7164 15.34389459155891

JSON: /api/v1/satellites/58543 · /tle

For live sub-satellite position, see the globe view (requires WebGL).

§ Visibility from observer

Set your observer location to see the next 7 days of passes ≥ 10°. The values pass through the URL so the page stays shareable.

No JS? Fill the form by hand. The geolocation button needs JavaScript.